Regional Weather Roundup
Issued by NWS Sterling, VA

Home | Current Version | Previous Version | Graphics & Text | Print | Product List | Glossary On
Versions: 1 2 3 4 5 6 7 8 9 10 11 12 13 14 15 16 17 18 19 20 21 22 23 24 25 26 27 28 29 30 31 32 33 34 35 36 37 38 39 40 41 42 43 44 45 46 47 48 49 50
570
ASUS41 KLWX 030011
RWRLWX

REGIONAL WEATHER ROUNDUP
NATIONAL WEATHER SERVICE BALTIMORE MD/WASHINGTON DC
800 PM EDT MON MAY 02 2016

Note: "FAIR" indicates few or no clouds below 12,000 feet
with no significant weather and/or obstructions to visibility.
 TC=TEMPERATURE CELSIUS

 * =Non NWS site. Station does not report precipitation (e.g. rain,
    snow, etc.), thunder, or fog.

DCZ001-MDZ009-015-VAZ040>042-051-053>054-030100-
WASHINGTON METRO

CITY           SKY/WX    TMP DP  RH WIND       PRES   REMARKS
WASHINGTON NAT HAIL      70  69  97 SW3       29.83R VSB 1/2
DULLES         TSTM      69  63  81 E14G23    29.80F
ANDREWS AFB    TSTM      69  66  92 E5        29.83S
FT BELVOIR     LGT RAIN  68  64  88 SE5       29.81F
QUANTICO       LGT RAIN  72  64  76 CALM      29.81F
COLLEGE PARK*  CLOUDY    68  64  88 N3        29.84R
LEESBURG*      TSTM      70  68  94 SW10G20   29.86R
MANASSAS*      CLOUDY    66  64  94 CALM      29.81S
GAITHERSBURG*  CLOUDY    66  61  82 SE10      29.86F THUNDER

$$

MDZ006>007-011-014-030100-
BALTIMORE METRO

CITY           SKY/WX    TMP DP  RH WIND       PRES   REMARKS
BWI AIRPORT    TSTM      65  61  87 NE6       29.84S
MD SCIENCE CTR   N/A     67  62  84 MISG      29.83F
MARTIN STATE   MOCLDY    66  64  94 CALM      29.86S
ANNAPOLIS      CLOUDY    63  61  93 SE7       29.82F
FORT MEADE*    CLOUDY    68  61  77 E5        29.86S

$$

MDZ012-015-019>023-030100-
MARYLAND EASTERN SHORE

CITY           SKY/WX    TMP DP  RH WIND       PRES   REMARKS
OCEAN CITY     CLOUDY    63  61  93 S7        29.90R
SALISBURY      CLOUDY    74  67  78 SE6       29.87R
CAMBRIDGE*       N/A     70  66  88 SE7       29.86R
EASTON*        MOCLDY   N/A N/A N/A SE6       29.88F

$$

MDZ017>025-030100-
SOUTHERN MARYLAND

CITY           SKY/WX    TMP DP  RH WIND       PRES   REMARKS
PATUXENT RIVER CLOUDY    66  62  87 SE8       29.82F
ST INIGOES     CLOUDY    73  65  75 SE7       29.82S THUNDER
LEONARDTOWN*   CLOUDY    70  64  83 SE5       29.85S

$$

MDZ003>005-030100-
NORTH CENTRAL MARYLAND

CITY           SKY/WX    TMP DP  RH WIND       PRES   REMARKS
FREDERICK*     MOCLDY    73  66  78 SE6       29.83F
HAGERSTOWN APT CLOUDY    76  61  59 S3        29.81S
WESTMINSTER*   CLOUDY    72  66  83 SE7       29.83F

$$

MDZ501>502-030100-
WESTERN MARYLAND

CITY           SKY/WX    TMP DP  RH WIND       PRES   REMARKS
OAKLAND*       CLOUDY    57  54  88 W6        29.96R
CUMBERLAND*    CLOUDY    79  48  34 W8G16     29.87R

$$

VAZ025>031-030100-
SHENANDOAH VALLEY

CITY           SKY/WX    TMP DP  RH WIND       PRES   REMARKS
WINCHESTER*    LGT RAIN  70  63  78 S8        29.83R
FRONT ROYAL*   CLOUDY    64  63  94 S9        29.85R
LURAY*         CLOUDY    66  64  94 W8        29.88R
NEW MARKET*    CLOUDY    63  61  91 SW8G16    29.88R VSB 3/4
STAUNTON*      LGT RAIN  64  61  89 NW7       29.93R
WAYNESBORO*    CLOUDY    63  59  87 W5        29.91R

$$

WVZ021-048>050-054>055-030100-
EASTERN WEST VIRGINIA PANHANDLE

CITY           SKY/WX    TMP DP  RH WIND       PRES   REMARKS
MARTINSBURG    LGT RAIN  75  64  68 N3        29.80S
PETERSBURG*    DRIZZLE   72  51  48 W13       29.89R

$$

VAZ036>039-050-030100-
CENTRAL FOOTHILLS

CITY           SKY/WX    TMP DP  RH WIND       PRES   REMARKS
CHARLOTTESVILL LGT RAIN  67  62  84 S5        29.85F
CULPEPER*      FAIR      77  64  62 SW12G21   29.82S
ORANGE*        LGT RAIN  70  64  83 SW13      29.87S
GORDONSVILLE*  CLOUDY    69  67  93 SW3       29.85F
WARRENTON*     FAIR      71  57  62 S6        29.80F

$$

VAZ055>057-030100-
NORTH AND CENTRAL PIEDMONT

CITY           SKY/WX    TMP DP  RH WIND       PRES   REMARKS
FREDERICKSBRG* FAIR      78  65  64 S6        29.81F
STAFFORD*      LGT RAIN  76  62  61 S6        29.85F

$$

NCZ024-NYZ072-PAZ021-071-VAZ022-071-030100-
OTHER REGIONAL OBSERVATIONS

CITY           SKY/WX    TMP DP  RH WIND       PRES   REMARKS
NEW YORK CITY  CLEAR     58  51  78 CALM      29.95R
PHILADELPHIA   MOCLDY    62  54  74 NE7       29.92R
PITTSBURGH     LGT RAIN  57  48  72 N5        29.92F
ROANOKE        TSTM      64  61  90 S5        29.95R
RICHMOND       CLOUDY    73  64  73 S9        29.85S
RALEIGH        MOCLDY    70  68  93 SE6       29.90F

$$

ANZ530>537-030100-
MARINE OBSERVATIONS

STATION/POSITION TIME  TEMP    WIND        PRES
                       AIR SEA DIR/SP/G
                 (UTC) (F)     (DEG/KT/KT) (MB)
THOMAS PT LIGHT  0000   67 59   90/  7/  8 1011.4F
BALT KEY BRIDGE  2300   65     120/  7/  8 1010.6F
COVE POINT       2300   68     170/  9/ 10 1011.0F
LEWISETTA        2300   72 63  170/  5/  7 1009.7F
SOLOMONS ISLAND  2300   68 62   90/  6/  7   N/A
PINEY POINT      2300          120/  8/  8   N/A

$$





USA.gov is the U.S. government's official web portal to all federal, state and local government web resources and services.